Regional Weather Roundup
Issued by NWS

Home | Current Version | Previous Version | Text Only | Print | Product List | Glossary Off
Versions: 1 2 3 4 5 6 7 8 9 10 11 12 13 14 15 16 17 18 19 20 21 22 23 24 25 26 27 28 29 30 31 32 33 34 35 36 37 38 39 40 41 42 43 44 45 46 47 48 49 50

000
ASUS43 KOAX 190402
RWRNE

WEATHER ROUNDUP FOR NEBRASKA
NATIONAL WEATHER SERVICE OMAHA NE
1100 PM CDT MON SEP 18 2017

NOTES: SATELLITE DATA IS BEING USED TO AUGMENT CLOUD COVER ABOVE
       12000 FEET.
       "FAIR" INDICATES FEW OR NO CLOUDS BELOW 12,000 FEET WITH NO
       SIGNIFICANT WEATHER AND/OR OBSTRUCTIONS TO VISIBILITY.


NEZ001>004-019>022-054>056-190500-
NEBRASKA PANHANDLE

CITY           SKY/WX    TMP DP  RH WIND       PRES   REMARKS
SCOTTSBLUFF    CLEAR     57  47  69 E8        29.80F
ALLIANCE       CLEAR     57  47  69 SE12      29.81F
CHADRON        CLEAR     73  36  25 S23       29.72F
GORDON         FAIR      64  44  48 S7        29.79S
SIDNEY         CLEAR     64  43  46 S16       29.87S
$$

NEZ057>060-069>072-079>082-190500-
SOUTHWEST NEBRASKA

CITY           SKY/WX    TMP DP  RH WIND       PRES   REMARKS
NORTH PLATTE   CLEAR     59  56  89 E6        29.85F
LEXINGTON      CLEAR     67  60  77 SE8       29.88S
MCCOOK         CLEAR     67  59  75 E9        29.85F
OGALLALA       CLEAR     67  50  53 SE13      29.85S
$$

NEZ005>010-023>029-035>040-094-190500-
NORTH CENTRAL NEBRASKA

CITY           SKY/WX    TMP DP  RH WIND       PRES   REMARKS
VALENTINE      CLEAR     66  58  75 S13       29.80F
O`NEILL        CLEAR     62  62 100 SE6       29.85S
THEDFORD       CLEAR     66  59  79 S10       29.85S
$$

NEZ041-046>049-061>064-073>077-083>087-190500-
SOUTH CENTRAL NEBRASKA

CITY           SKY/WX    TMP DP  RH WIND       PRES   REMARKS
GRAND ISLAND   CLEAR     66  65  96 SE8       29.88F
AURORA         CLEAR     63  63 100 SE7       29.89S
HASTINGS       CLEAR     68  64  87 SE8       29.89S
HEBRON         CLEAR     69  65  88 SE3       29.87F
HOLDREGE       CLEAR     63  60  88 SE7       29.88F
KEARNEY        CLEAR     64  61  90 SE7       29.88F
YORK           CLEAR     64  64 100 CALM      29.90R
$$

NEZ011>018-030>034-042>045-190500-
NORTHEAST NEBRASKA

CITY           SKY/WX    TMP DP  RH WIND       PRES   REMARKS
NORFOLK        CLEAR     63  63 100 SE8       29.87F FOG
ALBION         CLEAR     63  62  97 SE6       29.88S FOG
BLAIR          CLEAR     67  66  96 SE6       29.91S
COLUMBUS       CLEAR     62  62 100 E6        29.90R FOG
FREMONT        CLEAR     67  66  97 SE6       29.90R
TEKAMAH        PTCLDY    66  64  93 SE6       29.89S
WAYNE          CLEAR     64  62  92 SE8       29.89S FOG
$$

NEZ050>053-065>068-078-088>093-190500-
SOUTHEAST NEBRASKA

CITY           SKY/WX    TMP DP  RH WIND       PRES   REMARKS
LINCOLN        CLEAR     66  63  90 CALM      29.90S
OMAHA EPPLEY   PTCLDY    69  64  84 SE9       29.90S
BEATRICE       CLEAR     68  65  92 E3        29.88F
FALLS CITY     CLEAR     67  65  93 SE5       29.90R
NEBRASKA CITY  CLEAR     67  67 100 SE6       29.91R
PLATTSMOUTH    CLEAR     67  67 100 SE8       29.91S
$$

NEZ044-045-051>053-067-190500-
OMAHA AREA

CITY           SKY/WX    TMP DP  RH WIND       PRES   REMARKS
OMAHA EPPLEY   PTCLDY    69  64  84 SE9       29.90S
BLAIR          CLEAR     67  66  96 SE6       29.91S
FREMONT        CLEAR     67  66  97 SE6       29.90R
MILLARD        CLEAR     69  67  93 SE6       29.90S
OFFUTT AFB     CLEAR     67  65  94 E5        29.90S
PLATTSMOUTH    CLEAR     67  67 100 SE8       29.91S
WAHOO          FAIR      65  65  97 SE3       29.90S
$$



USA.gov is the U.S. government's official web portal to all federal, state and local government web resources and services.